{"data":{"norad_id":65580,"epoch":"2026-09-19T18:25:21.725184Z","epoch_age_seconds":81468,"freshness":"FRESH","line1":"1 65580U 25203R   26262.76761256  .00000063  00000+0  47087-4 0  9992","line2":"2 65580  81.3004 283.4812 0006380 299.1410  60.9107 13.83157040 51767","mean_motion":13.8315704,"eccentricity":0.000638,"inclination_deg":81.3004,"raan_deg":283.4812,"arg_perigee_deg":299.141,"mean_anomaly_deg":60.9107,"bstar":4.7087e-5,"rev_number":5176,"period_min":104.10965337674,"perigee_km":948.03333659927,"apogee_km":957.38749790368,"semimajor_km":7330.8474172515,"source":"CELESTRAK","updated_at":"2026-09-20T09:00:47.717869Z"}}